When you browse on this site, cookies collect data to enhance your experience and personalize the content and advertising you see.
Visit our Privacy Policy to learn more. By continuing to use the site, you agree to this use of cookies and data.
  • In Switzerland
  • List of Countries
  • For 7 days
  • Water Temperature
  • Satellite Maps
  • Weather Map
  • Weather Widgets
  • user-avatar
    Login

    Hourly Weather Kazmirow

    Today, 20 May, Monday

    Time Temperature Precipitation Wind Pressure Humidity
    00:00 +16°C° 0 mm 3 mps 739 mmHg 92%
    01:00 +14°C° 0 mm 3 mps 739 mmHg 95%
    02:00 +14°C° 0 mm 3 mps 739 mmHg 95%
    03:00 +13°C° 0 mm 3 mps 739 mmHg 95%
    04:00 +14°C° 0 mm 2 mps 738 mmHg 95%
    05:00 +14°C° 0 mm 3 mps 738 mmHg 92%
    06:00 +17°C° 0 mm 4 mps 738 mmHg 90%
    07:00 +18°C° 0 mm 4 mps 738 mmHg 87%
    08:00 +20°C° 1 mm 5 mps 738 mmHg 82%
    09:00 +21°C° 1 mm 6 mps 738 mmHg 77%
    10:00 +23°C° 1 mm 7 mps 738 mmHg 72%
    11:00 +23°C° 0.3 mm 7 mps 738 mmHg 68%
    12:00 +23°C° 0.3 mm 6 mps 738 mmHg 64%
    13:00 +24°C° 0.3 mm 6 mps 738 mmHg 60%
    14:00 +24°C° 0 mm 6 mps 738 mmHg 58%
    15:00 +25°C° 0 mm 5 mps 738 mmHg 56%
    16:00 +25°C° 0 mm 4 mps 738 mmHg 55%
    17:00 +22°C° 0 mm 3 mps 738 mmHg 60%
    18:00 +21°C° 0 mm 2 mps 738 mmHg 65%
    19:00 +21°C° 0 mm 1 mps 738 mmHg 70%
    20:00 +20°C° 0 mm 1 mps 738 mmHg 73%
    21:00 +18°C° 0 mm 2 mps 738 mmHg 75%
    22:00 +16°C° 0 mm 2 mps 738 mmHg 77%
    23:00 +16°C° 0 mm 2 mps 738 mmHg 79%

    Tomorrow, 21 May, Tuesday

    Time Temperature Precipitation Wind Pressure Humidity
    00:00 +15°C° 0 mm 2 mps 738 mmHg 82%
    01:00 +14°C° 0 mm 3 mps 738 mmHg 84%
    02:00 +13°C° 0 mm 3 mps 738 mmHg 84%
    03:00 +13°C° 0 mm 3 mps 738 mmHg 84%
    04:00 +13°C° 0 mm 3 mps 738 mmHg 84%
    05:00 +15°C° 0 mm 2 mps 738 mmHg 81%
    06:00 +16°C° 0 mm 2 mps 738 mmHg 78%
    07:00 +17°C° 0 mm 2 mps 739 mmHg 76%
    08:00 +18°C° 0.1 mm 2 mps 739 mmHg 72%
    09:00 +19°C° 0.1 mm 2 mps 739 mmHg 69%
    10:00 +20°C° 0.1 mm 2 mps 739 mmHg 66%
    11:00 +19°C° 0.4 mm 2 mps 739 mmHg 68%
    12:00 +19°C° 0.4 mm 2 mps 738 mmHg 70%
    13:00 +19°C° 0.4 mm 2 mps 738 mmHg 72%
    14:00 +19°C° 0 mm 2 mps 738 mmHg 71%
    15:00 +19°C° 0 mm 2 mps 738 mmHg 70%
    16:00 +20°C° 0 mm 2 mps 738 mmHg 70%
    17:00 +19°C° 0 mm 2 mps 738 mmHg 74%
    18:00 +19°C° 0 mm 1 mps 738 mmHg 78%
    19:00 +18°C° 0 mm 1 mps 738 mmHg 82%
    20:00 +16°C° 0.1 mm 1 mps 738 mmHg 84%
    21:00 +16°C° 0.1 mm 2 mps 738 mmHg 86%
    22:00 +15°C° 0.1 mm 2 mps 738 mmHg 89%
    23:00 +15°C° 1.5 mm 2 mps 738 mmHg 91%

    Day after tomorrow, 22 May, Wednesday

    Time Temperature Precipitation Wind Pressure Humidity
    00:00 +14°C° 1.5 mm 3 mps 738 mmHg 93%
    01:00 +14°C° 1.5 mm 3 mps 738 mmHg 94%
    02:00 +14°C° 0.4 mm 3 mps 738 mmHg 95%
    03:00 +14°C° 0.4 mm 4 mps 738 mmHg 95%
    04:00 +13°C° 0.4 mm 4 mps 738 mmHg 96%
    05:00 +14°C° 0.1 mm 3 mps 738 mmHg 95%
    06:00 +14°C° 0.1 mm 3 mps 738 mmHg 94%
    07:00 +16°C° 0.1 mm 2 mps 739 mmHg 94%
    08:00 +16°C° 0.2 mm 2 mps 739 mmHg 93%
    09:00 +16°C° 0.2 mm 2 mps 739 mmHg 92%
    10:00 +16°C° 0.2 mm 2 mps 739 mmHg 91%
    11:00 +17°C° 0.8 mm 3 mps 739 mmHg 89%
    12:00 +17°C° 0.8 mm 5 mps 740 mmHg 86%
    13:00 +17°C° 0.8 mm 6 mps 740 mmHg 84%
    14:00 +17°C° 0.5 mm 6 mps 740 mmHg 86%
    15:00 +16°C° 0.5 mm 7 mps 740 mmHg 87%
    16:00 +16°C° 0.5 mm 7 mps 740 mmHg 88%
    17:00 +15°C° 0.3 mm 7 mps 740 mmHg 90%
    18:00 +14°C° 0.3 mm 7 mps 741 mmHg 92%
    19:00 +14°C° 0.3 mm 7 mps 741 mmHg 93%
    20:00 +14°C° 0.5 mm 7 mps 741 mmHg 93%
    21:00 +14°C° 0.5 mm 7 mps 742 mmHg 94%
    22:00 +13°C° 0.5 mm 8 mps 742 mmHg 94%
    23:00 +12°C° 0.3 mm 8 mps 742 mmHg 94%

    23 May, Thursday

    Time Temperature Precipitation Wind Pressure Humidity
    00:00 +12°C° 0.3 mm 8 mps 742 mmHg 94%
    01:00 +12°C° 0.3 mm 8 mps 743 mmHg 94%
    02:00 +11°C° 0.3 mm 8 mps 743 mmHg 93%
    03:00 +11°C° 0.3 mm 8 mps 743 mmHg 93%
    04:00 +11°C° 0.3 mm 8 mps 744 mmHg 93%
    05:00 +10°C° 0.4 mm 8 mps 744 mmHg 93%
    06:00 +9°C° 0.4 mm 8 mps 745 mmHg 93%
    07:00 +9°C° 0.4 mm 8 mps 745 mmHg 92%
    08:00 +7°C° 0.5 mm 8 mps 746 mmHg 92%
    09:00 +7°C° 0.5 mm 8 mps 746 mmHg 92%
    10:00 +7°C° 0.5 mm 8 mps 747 mmHg 92%
    11:00 +8°C° 0.2 mm 7 mps 747 mmHg 90%
    12:00 +9°C° 0.2 mm 6 mps 747 mmHg 88%
    13:00 +9°C° 0.2 mm 5 mps 747 mmHg 86%
    14:00 +11°C° 0 mm 4 mps 747 mmHg 84%
    15:00 +12°C° 0 mm 4 mps 747 mmHg 81%
    16:00 +13°C° 0 mm 3 mps 747 mmHg 79%
    17:00 +13°C° 0 mm 3 mps 748 mmHg 79%
    18:00 +13°C° 0 mm 3 mps 748 mmHg 80%
    19:00 +14°C° 0 mm 2 mps 748 mmHg 81%
    20:00 +11°C° 0 mm 3 mps 748 mmHg 83%
    21:00 +10°C° 0 mm 3 mps 748 mmHg 84%
    22:00 +9°C° 0 mm 3 mps 748 mmHg 86%
    23:00 +8°C° 0 mm 2 mps 748 mmHg 87%

    24 May, Friday

    Time Temperature Precipitation Wind Pressure Humidity
    00:00 +7°C° 0 mm 2 mps 748 mmHg 87%
    01:00 +7°C° 0 mm 2 mps 748 mmHg 87%
    02:00 +6°C° 0 mm 2 mps 748 mmHg 88%
    03:00 +7°C° 0 mm 1 mps 747 mmHg 89%
    04:00 +6°C° 0 mm 1 mps 747 mmHg 89%
    05:00 +8°C° 0 mm 1 mps 747 mmHg 84%
    06:00 +10°C° 0 mm 1 mps 747 mmHg 78%
    07:00 +11°C° 0 mm 1 mps 747 mmHg 72%
    08:00 +13°C° 0 mm 2 mps 747 mmHg 66%
    09:00 +14°C° 0 mm 2 mps 746 mmHg 59%
    10:00 +15°C° 0 mm 2 mps 746 mmHg 53%
    11:00 +16°C° 0 mm 2 mps 745 mmHg 51%
    12:00 +18°C° 0 mm 1 mps 745 mmHg 48%
    13:00 +19°C° 0 mm 1 mps 744 mmHg 46%
    14:00 +19°C° 0 mm 1 mps 744 mmHg 45%
    15:00 +18°C° 0 mm 0 mps 743 mmHg 45%
    16:00 +18°C° 0 mm 0 mps 743 mmHg 44%
    17:00 +18°C° 0 mm 1 mps 743 mmHg 50%
    18:00 +16°C° 0 mm 1 mps 742 mmHg 56%
    19:00 +15°C° 0 mm 1 mps 742 mmHg 62%
    20:00 +14°C° 0 mm 2 mps 742 mmHg 62%
    21:00 +13°C° 0 mm 2 mps 742 mmHg 61%
    22:00 +12°C° 0 mm 2 mps 742 mmHg 61%
    23:00 +12°C° 0 mm 2 mps 742 mmHg 63%

    25 May, Saturday

    Time Temperature Precipitation Wind Pressure Humidity
    00:00 +10°C° 0 mm 2 mps 742 mmHg 65%
    01:00 +10°C° 0 mm 2 mps 742 mmHg 67%
    02:00 +10°C° 0 mm 2 mps 742 mmHg 69%
    03:00 +9°C° 0 mm 2 mps 742 mmHg 71%
    04:00 +9°C° 0 mm 2 mps 741 mmHg 73%
    05:00 +12°C° 0 mm 2 mps 742 mmHg 71%
    06:00 +13°C° 0 mm 2 mps 742 mmHg 69%
    07:00 +15°C° 0 mm 2 mps 742 mmHg 67%
    08:00 +16°C° 0 mm 2 mps 742 mmHg 62%
    09:00 +19°C° 0 mm 1 mps 742 mmHg 57%
    10:00 +20°C° 0 mm 1 mps 742 mmHg 52%
    11:00 +21°C° 0 mm 1 mps 742 mmHg 49%
    12:00 +20°C° 0 mm 0 mps 742 mmHg 47%
    13:00 +21°C° 0 mm 0 mps 742 mmHg 45%
    14:00 +21°C° 0 mm 0 mps 742 mmHg 44%
    15:00 +23°C° 0 mm 1 mps 741 mmHg 44%
    16:00 +23°C° 0 mm 1 mps 741 mmHg 44%
    17:00 +22°C° 0 mm 1 mps 741 mmHg 50%
    18:00 +20°C° 0 mm 1 mps 742 mmHg 55%
    19:00 +19°C° 0 mm 1 mps 742 mmHg 61%
    20:00 +18°C° 0 mm 1 mps 742 mmHg 62%
    21:00 +16°C° 0 mm 1 mps 742 mmHg 63%
    22:00 +14°C° 0 mm 0 mps 743 mmHg 64%
    23:00 +14°C° 0 mm 1 mps 743 mmHg 69%
    Show more